Tracking 32964 objects as of 20-Jan-2026
HD Live streaming from Space Station
objects crossing your sky now

STARLINK-31200

Track STARLINK-31200 now!
10-day predictions
STARLINK-31200 is classified as:


NORAD ID: 58862
Int'l Code: 2024-019K
Perigee: 489.6 km
Apogee: 490.9 km
Inclination: 43.0 °
Period: 94.3 minutes
Semi major axis: 6861 km
RCS: Unknown
Launch date: January 29, 2024
Source: United States (US)
Launch site: AIR FORCE EASTERN TEST RANGE (AFETR)
Your satellite tracking list
Your tracking list is empty




NASA's NSSDC Master Catalog

Two Line Element Set (TLE):
1 58862U 24019K   26019.78232695 -.00002284  00000-0 -73550-4 0  9997
2 58862  43.0014 165.0407 0000953 244.5770 115.4983 15.27561017111607
Source of the keplerian elements: AFSPC